Temp_Advection
nan nan nan nan nan nan nan nan nan nan nan nan nan nan nan nan nan nan nan nan nan nan nan nan nan nan nan nan nan nan nan nan nan nan nan nan nan nan nan nan nan nan nan nan nan
nan 0 0 0 0 0 0 0 -0 -0 -0 -0 -0 -0 -0 -0 -0 -0 0 0 0 0 0 0 0 -0 -0 -0 -0 -0 0 0 0 0 -0 -0 -0 -0 -0 -0 -0 -0 0 -0 nan
nan 0 0 0 0 0 0 -0 -0 -0 -0 -0 -0 -0 -0 -0 -0 0 0 0 -0 -0 -0 -0 -0 -0 -0 -0 -0 0 0 0 0 0 -0 -0 -0 -0 -0 -0 -0 -0 -0 -0 nan
nan 0 0 0 0 0 0 0 -0 -0 -0 -0 -0 -0 -0 -0 -0 -0 -0 -0 -0 -0 -0 -0 -0 -0 -0 -0 -0 -0 0 0 -0 0 -0 -0 -0 -0 -0 -1 -0 -0 -0 -0 nan
nan 0 0 0 0 0 0 0 -0 0 -0 -0 -0 -0 -0 -0 -0 -0 0 0 -0 -0 -0 -0 -0 0 -0 -0 -0 0 0 -0 -0 -0 -0 -0 -0 -0 -1 -0 -0 0 0 -0 nan
nan 0 0 0 0 0 0 0 0 0 0 -0 -0 -0 0 -0 -1 0 0 0 0 0 -0 -0 -0 -0 -0 0 0 0 -0 -0 -0 0 -0 -0 0 -0 -0 -0 -0 -0 -0 -0 nan
nan 0 0 0 0 0 0 0 0 0 0 -0 -0 -0 -1 -2 -0 0 0 0 0 0 0 0 0 0 -0 0 -0 -0 -0 0 -0 -0 0 -0 -0 -0 -0 -1 -1 -0 -1 -0 nan
nan 0 0 0 0 1 1 1 0 0 0 -0 -0 -0 -1 -1 -0 0 0 0 0 0 0 0 0 0 0 0 0 -0 0 -0 0 -0 -0 -0 -0 0 0 -0 -1 -1 -1 -1 nan
nan 0 0 1 1 1 1 1 0 0 0 -0 -0 -0 -1 -1 -0 0 0 0 0 0 0 0 0 0 0 0 0 0 -0 0 -0 0 -0 -0 -0 -0 0 0 -0 -1 -1 -1 nan
nan 0 1 1 1 1 1 1 1 1 0 -0 -0 -1 -1 0 0 0 0 0 0 0 0 0 0 -0 0 0 -0 0 0 0 -0 -0 -0 -0 -0 -0 -0 0 -0 -1 -1 -1 nan
nan 0 0 0 1 1 1 0 -0 -0 -1 -1 -0 -0 -0 0 0 0 0 -0 0 0 0 0 0 -0 -0 0 0 0 0 -0 -0 -0 -0 -0 -0 -0 -0 -0 -0 -1 -1 -1 nan
nan -0 0 1 1 1 0 -1 -1 -0 -0 -1 0 0 -0 0 0 0 0 0 -0 0 -0 -0 -0 -0 0 0 0 0 0 -0 -0 -0 -0 -0 -0 0 -0 -0 -0 -0 -0 -1 nan
nan 0 0 0 1 1 1 0 0 0 0 0 1 -1 -1 1 0 -0 -0 -0 0 -0 -0 -0 -0 0 0 0 -0 0 0 -0 -0 -0 -0 -0 -0 0 -0 -0 -0 -0 -0 -0 nan
nan -0 0 0 1 0 -0 0 0 -0 -0 -0 0 -1 1 0 -0 -0 -0 0 0 -0 -0 -0 0 -0 0 -0 -0 -0 -0 -0 0 -0 -0 -0 -0 0 -0 -0 -0 -0 -0 0 nan
nan -0 0 1 -0 -1 -0 0 1 1 0 -0 -0 0 0 0 -0 1 1 0 -0 0 0 -0 0 -0 -0 -0 -0 -0 -0 0 0 0 -0 -0 -0 0 0 -0 -0 -0 -0 0 nan
nan 0 0 0 0 0 1 1 1 0 -1 0 -0 0 0 0 0 0 1 0 0 0 0 0 -0 -0 -0 -0 0 -0 -0 -0 0 0 -0 -0 0 0 -0 0 -0 -0 -0 0 nan
nan 0 -0 0 1 1 1 0 0 -0 0 -0 -0 -0 -0 0 0 0 0 0 0 0 -0 0 -0 -0 0 -0 0 0 -0 -0 -0 0 0 0 0 -0 0 0 0 -0 -0 0 nan
nan -0 -0 0 0 1 -0 0 -0 -0 -0 -0 -0 -0 -0 -0 -0 -0 0 0 -0 -0 -0 0 -0 0 0 -0 -0 0 0 -0 0 0 0 -0 -0 0 0 0 0 0 0 0 nan
nan -0 0 0 0 1 -1 -0 0 -0 -0 -0 -0 -0 -0 -0 -0 -0 -0 -0 0 -0 -0 -0 -0 0 -0 0 -0 -0 -0 0 -1 -0 -0 -0 0 0 0 0 0 -0 0 0 nan
nan -0 -0 -0 0 1 -0 0 -0 -0 0 -0 -0 -0 -0 -0 -0 -0 -0 -0 -0 -0 0 -0 -0 0 0 0 0 -0 -0 0 -0 -0 -0 0 -0 0 -0 -0 -0 -0 0 0 nan
nan -0 -0 -1 0 1 0 -0 -0 -0 0 0 -0 -0 -0 -0 -0 0 -0 -0 -0 -0 0 -0 0 0 0 0 0 -0 0 -0 -0 0 0 0 0 0 -0 0 0 0 0 -0 nan
nan -0 -0 -0 0 0 -0 -0 -0 -0 0 0 0 -0 0 -0 0 -0 -0 0 0 -0 0 -0 0 0 0 0 0 -0 0 -0 0 0 0 -0 0 0 0 1 0 0 0 0 nan
nan 0 1 1 0 -0 0 -0 -0 -0 -0 -0 0 0 0 0 0 0 0 0 1 0 0 -0 0 0 -0 -0 -0 0 0 0 0 -0 -1 -0 0 -0 0 0 0 0 0 0 nan
nan 0 0 0 0 -0 -0 -0 0 1 0 -0 0 0 0 0 -0 0 0 -0 0 1 1 0 0 -0 0 0 0 0 -0 0 0 -0 -0 -1 1 -0 -0 0 0 0 -0 0 nan
nan 0 0 0 0 0 0 0 0 0 0 0 -0 -0 -0 -0 -0 0 0 -0 0 0 1 1 0 1 0 0 0 -0 0 1 0 -0 0 1 1 -1 -0 1 1 0 0 -0 nan
nan 0 0 0 -0 0 0 0 0 -0 1 0 -0 0 0 -0 -0 0 0 -0 -0 0 0 -0 0 0 -0 0 0 -0 0 -0 -0 0 1 0 -0 0 1 1 0 0 0 -0 nan
nan nan nan nan nan nan nan nan nan nan nan nan nan nan nan nan nan nan nan nan nan nan nan nan nan nan nan nan nan nan nan nan nan nan nan nan nan nan nan nan nan nan nan nan nan
Wind_Speed
30 28 26 24 22 19 17 15 13 12 12 12 12 12 13 14 13 11 7 3 3 6 8 6 5 5 2 3 3 3 3 2 2 4 1 7 6 5 10 2 10 4 4 8 13
31 30 28 26 23 21 18 16 14 14 13 12 12 11 12 14 14 10 5 2 2 5 7 8 7 6 3 3 3 3 2 5 1 1 1 6 5 7 5 6 3 8 12 13 15
32 31 29 27 25 22 20 18 16 15 14 13 12 11 11 12 13 4 6 3 2 6 10 8 7 6 4 3 3 2 3 3 4 1 5 3 6 4 7 1 13 15 15 14 17
33 32 30 28 26 23 21 19 17 16 15 14 13 12 11 9 3 4 5 5 7 12 12 6 2 2 3 2 3 2 1 2 3 2 7 6 7 6 8 14 15 15 18 18 15
35 33 31 30 27 25 22 20 19 17 16 15 14 13 11 6 9 11 12 12 14 7 2 2 4 2 3 2 2 1 2 5 8 17 14 12 13 8 13 8 13 12 13 12 15
36 35 32 30 29 26 24 21 19 18 16 15 14 12 10 6 9 10 8 7 4 3 3 3 4 4 5 2 0 1 5 10 10 13 10 6 3 4 0 11 16 15 16 13 11
37 35 34 31 30 27 25 22 20 17 15 14 13 12 13 20 11 10 11 9 7 3 1 3 4 2 1 2 1 2 5 7 4 2 2 4 4 5 5 14 15 16 15 13 7
38 36 35 33 30 28 25 22 20 16 14 13 12 12 11 16 17 17 17 18 18 16 11 5 1 3 1 1 3 1 1 2 1 5 4 1 4 7 13 14 15 15 16 14 12
41 36 35 34 31 28 25 22 19 16 13 12 9 9 11 12 12 10 13 14 12 12 11 8 4 4 2 1 2 3 3 2 5 5 4 6 6 7 15 13 13 14 15 15 14
42 38 36 34 32 29 27 23 19 15 12 8 11 8 16 4 7 7 10 10 6 13 15 7 4 3 2 3 5 2 2 2 3 1 6 11 12 10 15 13 13 13 16 15 15
33 39 42 37 35 35 34 27 12 6 17 13 8 8 2 13 11 9 13 13 17 7 5 7 5 9 13 12 3 4 2 3 4 7 5 8 10 13 13 9 8 11 16 18 16
25 31 40 42 39 40 37 36 25 4 6 32 26 18 12 8 6 14 17 10 8 5 9 4 9 12 6 10 7 5 4 6 8 2 4 9 13 15 3 4 7 10 13 16 17
36 26 29 40 41 39 41 34 16 7 2 5 28 30 30 20 9 19 23 10 5 7 12 7 3 7 12 8 10 8 7 4 7 8 2 6 6 3 2 5 7 10 11 13 16
41 33 28 28 41 44 39 32 15 7 1 5 9 14 20 16 9 18 27 12 5 12 9 4 4 8 11 10 12 7 11 11 6 3 3 4 5 4 2 4 6 9 13 14 16
41 36 32 36 31 46 42 31 18 14 5 6 7 5 14 19 13 22 28 14 8 7 6 6 8 12 7 6 15 7 6 10 5 4 2 3 5 3 1 3 3 4 7 11 14
35 41 31 40 36 39 34 37 21 5 9 4 8 9 12 15 4 6 20 10 9 5 1 5 3 8 8 6 17 6 5 4 2 2 5 11 9 3 4 4 6 3 5 9 13
36 41 45 43 39 43 44 38 5 6 3 8 6 10 9 10 5 5 12 18 13 9 13 5 6 3 6 6 9 9 7 3 3 4 6 3 5 8 5 6 10 10 7 11 14
34 35 41 39 43 46 57 11 6 11 10 5 8 14 11 11 8 5 12 13 17 4 3 13 8 17 8 7 9 17 13 5 7 5 2 3 7 3 3 8 9 8 9 11 13
32 33 39 37 40 55 38 9 11 8 10 12 14 9 9 7 7 7 12 11 15 15 11 8 7 4 6 7 12 7 10 4 6 2 1 5 3 3 5 6 8 9 9 11 9
35 37 39 42 37 54 17 12 12 8 9 15 7 7 15 13 8 13 13 10 8 19 5 6 2 2 7 6 10 6 12 5 1 6 6 4 6 7 11 14 10 10 10 11 8
39 18 31 42 57 39 12 8 9 17 11 10 8 7 7 9 11 11 12 2 16 18 17 6 2 2 8 10 16 7 7 2 5 5 6 3 5 7 18 16 14 12 12 14 12
36 10 27 42 16 6 13 10 13 13 15 4 4 5 9 13 12 12 14 7 17 20 19 8 3 4 6 4 5 18 15 14 7 6 4 2 6 3 10 15 18 15 12 12 12
26 17 31 56 15 6 7 11 17 16 18 9 8 5 4 9 6 8 10 4 18 16 18 11 5 4 2 3 2 8 11 15 10 3 10 6 8 2 10 16 17 17 15 13 8
19 3 18 29 44 16 8 19 16 25 21 11 7 6 5 6 1 11 7 2 6 13 20 23 5 8 12 3 5 9 10 13 16 9 14 15 16 8 13 17 18 18 14 11 9
13 6 9 8 20 17 18 12 25 11 8 27 10 14 13 6 7 5 5 4 3 5 7 9 8 6 3 2 2 4 14 15 18 24 18 23 17 19 20 18 24 21 14 11 12
9 4 6 6 30 23 17 7 22 12 14 20 14 20 15 13 17 8 7 5 6 3 5 3 2 3 5 4 5 6 7 15 21 19 16 12 15 12 26 16 16 22 14 13 15
15 9 6 6 16 20 11 10 20 15 5 17 18 11 16 19 7 7 5 8 8 9 6 8 5 3 7 5 3 7 22 18 13 13 19 16 18 11 16 20 22 20 18 18 15
Wind_Direction
224 225 227 229 230 233 236 243 251 260 270 280 292 304 312 317 324 322 325 342 359 355 351 360 342 341 116 101 86 96 78 181 220 177 24 357 3 337 332 304 335 286 297 315 323
227 225 225 227 229 231 236 242 248 258 267 276 288 302 313 318 327 316 204 225 9 19 20 26 39 55 95 73 57 76 139 202 149 244 360 323 341 315 317 339 288 303 305 310 330
228 228 226 226 228 230 232 238 245 254 263 273 283 296 307 319 324 213 191 199 308 340 342 348 358 25 79 56 35 131 183 166 188 223 340 273 295 275 283 298 291 301 309 306 302
227 227 227 226 226 227 230 235 242 250 260 268 277 287 298 312 286 204 220 245 289 307 316 331 346 31 72 65 14 265 136 205 249 257 319 280 288 275 258 271 312 306 300 288 279
226 225 225 225 225 225 227 232 237 245 254 264 272 283 299 283 257 257 255 266 281 300 326 48 74 99 106 93 346 109 312 291 282 294 284 276 267 256 269 321 339 338 346 300 264
224 223 223 223 223 223 225 228 234 240 249 262 271 283 294 276 255 257 249 250 217 118 76 91 100 96 105 124 216 291 279 285 292 278 270 263 275 169 290 338 343 348 356 351 262
222 221 221 221 221 220 223 226 232 239 247 260 271 280 278 259 256 251 250 230 215 234 281 147 114 108 92 144 346 305 304 317 261 268 266 212 251 223 315 340 344 349 356 357 332
221 219 219 219 219 218 219 222 228 234 242 253 270 286 268 269 253 250 247 249 244 256 244 204 190 94 135 328 24 289 82 322 9 327 22 207 251 293 331 336 336 345 356 358 5
218 216 217 216 215 214 213 216 220 224 234 243 263 273 266 258 257 229 233 234 230 232 199 183 146 115 129 79 317 20 273 225 305 45 359 22 296 291 317 327 331 339 346 350 343
223 213 214 212 209 207 206 205 209 214 212 233 250 282 239 214 176 177 166 164 159 150 149 160 129 113 125 162 254 216 218 207 255 249 330 308 285 291 296 322 322 335 341 346 345
235 223 211 208 204 201 195 183 175 199 204 199 198 209 249 198 191 181 171 149 134 149 150 179 179 204 210 204 170 128 150 249 256 276 304 274 292 289 304 316 351 360 353 352 356
232 232 223 204 202 201 202 192 191 177 213 227 232 233 227 171 183 187 172 168 172 158 134 140 230 225 180 193 195 211 242 262 281 295 221 290 291 286 345 65 36 9 3 360 356
226 229 236 207 200 199 203 196 187 174 343 237 225 232 226 231 225 193 182 189 174 149 190 183 155 168 177 168 194 216 214 201 248 329 246 293 268 316 99 76 41 37 32 24 15
228 225 226 231 195 195 199 188 177 148 305 245 205 234 214 205 240 194 195 179 181 188 176 230 197 135 171 198 188 216 211 222 234 297 264 349 294 293 29 70 44 33 36 38 44
227 223 220 207 186 187 197 178 160 139 219 188 165 184 183 176 147 204 198 200 171 165 157 208 169 178 179 196 177 225 165 192 194 216 297 233 273 269 5 145 101 54 49 57 62
224 222 220 210 198 199 184 164 153 132 229 200 141 163 154 204 194 114 184 189 177 147 149 196 173 178 199 169 176 140 116 81 81 166 248 222 219 211 208 169 158 137 73 71 69
217 218 222 214 193 192 170 148 129 209 133 188 169 164 165 173 187 152 172 187 184 185 220 186 213 182 156 135 182 195 153 148 192 203 246 136 202 251 218 189 168 152 125 103 92
210 214 221 209 196 187 157 139 182 174 188 142 159 167 178 148 203 155 153 181 211 194 129 199 231 197 174 183 178 194 193 176 201 198 186 146 231 245 194 168 154 143 128 113 101
210 213 214 211 192 178 150 189 180 177 166 156 141 171 179 185 157 161 184 194 195 192 194 174 242 194 208 172 158 172 207 166 105 25 230 206 242 241 164 178 174 170 158 147 128
214 208 211 210 200 178 165 181 177 197 165 148 161 178 184 175 155 181 176 189 197 197 216 189 166 195 170 174 210 186 158 169 145 187 225 223 252 220 186 197 184 186 186 176 164
207 210 205 204 180 186 189 167 176 191 181 167 168 155 183 171 172 185 191 206 194 186 196 148 196 136 142 201 196 177 192 159 179 188 212 219 240 210 196 187 181 182 191 196 186
201 219 188 190 195 187 198 159 161 195 185 186 161 120 169 169 175 190 197 211 178 163 194 181 160 184 193 157 198 214 214 200 199 186 239 259 255 188 205 180 173 173 165 162 178
208 204 186 192 204 186 161 199 175 176 195 174 181 169 158 167 175 185 192 190 161 167 170 172 191 154 211 220 175 213 204 210 217 120 207 194 248 26 181 167 180 175 179 183 188
200 195 194 200 205 200 169 196 179 178 187 173 160 126 133 178 273 181 181 90 178 183 179 168 160 211 212 175 150 202 198 200 201 219 233 234 236 180 182 180 176 179 179 199 226
200 193 201 189 193 179 192 182 186 185 198 185 186 191 174 160 170 181 148 130 72 169 161 176 204 188 218 162 196 234 215 193 199 216 208 237 221 191 193 194 189 187 208 239 254
176 183 161 155 196 189 182 206 178 166 162 188 201 203 198 206 198 165 136 175 168 166 158 17 190 115 232 201 200 240 239 206 213 221 237 248 233 199 198 194 196 209 235 242 250
215 243 214 181 179 193 172 171 202 177 211 184 194 165 193 213 165 127 144 156 137 154 160 140 130 143 244 136 135 264 229 213 209 213 216 218 230 168 192 202 207 214 225 237 248
Height
1512 1516 1520 1523 1525 1528 1530 1531 1532 1533 1533 1534 1534 1534 1533 1532 1532 1531 1529 1530 1529 1528 1528 1527 1526 1525 1526 1526 1527 1528 1534 1538 1535 1537 1533 1535 1532 1530 1528 1528 1527 1525 1525 1525 1524
1508 1511 1515 1519 1522 1525 1527 1528 1529 1530 1531 1532 1532 1532 1532 1531 1530 1528 1529 1528 1529 1528 1527 1526 1526 1525 1526 1527 1528 1529 1535 1534 1534 1534 1534 1535 1534 1531 1528 1528 1526 1524 1524 1524 1523
1502 1506 1510 1514 1518 1521 1523 1525 1526 1527 1528 1529 1530 1531 1531 1530 1529 1527 1527 1528 1528 1528 1528 1527 1527 1526 1526 1528 1530 1531 1531 1533 1533 1533 1533 1533 1531 1530 1527 1525 1524 1524 1522 1522 1521
1496 1501 1505 1509 1513 1517 1520 1521 1523 1524 1525 1526 1527 1528 1529 1529 1531 1526 1526 1527 1527 1526 1526 1527 1527 1526 1529 1529 1531 1532 1532 1531 1531 1531 1531 1530 1528 1527 1526 1522 1522 1520 1519 1517 1516
1490 1495 1500 1505 1509 1512 1515 1518 1520 1521 1522 1523 1524 1525 1527 1528 1525 1523 1523 1524 1525 1525 1525 1526 1527 1528 1529 1530 1531 1530 1532 1531 1530 1528 1527 1526 1524 1524 1520 1521 1520 1518 1515 1512 1512
1483 1489 1494 1499 1504 1507 1511 1514 1516 1517 1519 1521 1521 1524 1525 1526 1521 1520 1520 1522 1523 1524 1524 1525 1526 1529 1530 1530 1530 1531 1531 1530 1526 1524 1523 1524 1521 1521 1517 1517 1516 1514 1511 1509 1508
1476 1482 1488 1493 1498 1502 1507 1510 1513 1514 1516 1518 1519 1521 1521 1518 1518 1518 1518 1520 1521 1522 1525 1525 1526 1529 1531 1531 1530 1531 1531 1527 1522 1522 1520 1521 1519 1518 1517 1514 1512 1511 1510 1508 1506
1469 1475 1481 1487 1493 1497 1502 1505 1508 1511 1513 1515 1517 1518 1515 1512 1512 1514 1514 1515 1518 1521 1523 1525 1526 1528 1530 1531 1531 1531 1531 1528 1522 1522 1521 1520 1518 1514 1515 1513 1511 1511 1509 1508 1506
1460 1467 1474 1480 1487 1493 1497 1500 1504 1508 1510 1512 1515 1517 1510 1506 1507 1509 1510 1512 1514 1517 1521 1524 1526 1527 1531 1531 1532 1533 1529 1533 1525 1522 1521 1522 1519 1513 1512 1512 1511 1509 1508 1507 1505
1450 1458 1466 1474 1480 1487 1492 1494 1502 1504 1507 1511 1512 1519 1505 1504 1504 1506 1507 1509 1511 1514 1520 1524 1525 1527 1531 1531 1529 1528 1532 1535 1530 1521 1520 1519 1517 1513 1510 1510 1508 1508 1507 1505 1504
1442 1449 1457 1466 1472 1478 1483 1491 1502 1505 1502 1498 1497 1500 1498 1500 1503 1504 1506 1507 1509 1514 1516 1522 1522 1521 1519 1524 1526 1530 1531 1533 1528 1523 1525 1517 1516 1510 1508 1507 1507 1508 1506 1505 1502
1437 1443 1448 1456 1464 1468 1476 1477 1482 1489 1493 1491 1494 1497 1497 1498 1501 1502 1503 1506 1508 1509 1515 1521 1517 1513 1519 1524 1526 1529 1531 1530 1525 1524 1523 1516 1514 1506 1508 1507 1509 1509 1507 1504 1502
1432 1437 1441 1446 1455 1462 1467 1475 1483 1486 1490 1487 1487 1489 1492 1495 1496 1496 1499 1501 1502 1508 1509 1509 1508 1509 1515 1522 1527 1528 1528 1529 1527 1523 1517 1518 1510 1508 1507 1508 1509 1508 1508 1506 1503
1425 1432 1436 1440 1448 1452 1463 1476 1482 1488 1495 1483 1482 1477 1482 1489 1489 1492 1494 1497 1501 1502 1507 1508 1506 1511 1515 1518 1520 1528 1521 1523 1526 1527 1523 1520 1518 1507 1506 1508 1509 1509 1507 1506 1502
1419 1424 1428 1434 1439 1447 1454 1473 1481 1487 1497 1468 1472 1470 1471 1479 1478 1481 1488 1493 1494 1498 1501 1500 1504 1508 1512 1511 1515 1516 1517 1520 1523 1524 1525 1520 1522 1505 1509 1509 1509 1510 1508 1506 1503
1411 1417 1422 1426 1431 1444 1450 1466 1480 1495 1477 1464 1465 1468 1473 1477 1477 1479 1483 1488 1492 1497 1498 1498 1499 1502 1502 1507 1511 1513 1517 1522 1525 1525 1527 1515 1514 1505 1504 1503 1507 1509 1508 1507 1506
1405 1411 1417 1418 1421 1434 1443 1460 1481 1473 1463 1460 1459 1462 1464 1469 1475 1476 1479 1482 1486 1499 1496 1498 1497 1498 1499 1505 1511 1512 1515 1525 1528 1528 1518 1518 1520 1496 1500 1502 1504 1506 1507 1506 1506
1398 1405 1407 1410 1413 1423 1433 1451 1452 1448 1451 1446 1453 1460 1458 1463 1469 1472 1475 1479 1482 1484 1489 1495 1499 1493 1493 1491 1497 1505 1504 1507 1519 1523 1514 1521 1512 1494 1500 1503 1505 1507 1507 1507 1508
1392 1397 1402 1409 1405 1410 1420 1433 1431 1436 1433 1439 1452 1455 1454 1456 1459 1466 1469 1469 1471 1476 1478 1488 1491 1483 1486 1488 1490 1502 1505 1501 1516 1530 1520 1504 1503 1498 1501 1503 1505 1505 1505 1505 1507
1382 1388 1392 1399 1401 1404 1411 1412 1420 1426 1427 1431 1438 1443 1447 1448 1454 1458 1465 1459 1463 1467 1472 1477 1482 1481 1484 1488 1489 1490 1493 1506 1511 1520 1518 1502 1503 1486 1498 1497 1500 1502 1502 1503 1504
1379 1377 1379 1392 1399 1394 1393 1406 1410 1413 1416 1422 1429 1437 1438 1441 1446 1452 1456 1453 1454 1461 1469 1474 1476 1485 1482 1482 1480 1490 1492 1496 1494 1501 1498 1499 1487 1481 1480 1486 1493 1496 1497 1499 1500
1366 1363 1368 1380 1388 1373 1390 1389 1392 1408 1411 1421 1422 1421 1429 1435 1443 1446 1443 1442 1447 1453 1462 1468 1475 1481 1477 1476 1478 1477 1478 1481 1487 1500 1504 1498 1478 1480 1482 1485 1489 1492 1494 1496 1497
1356 1358 1364 1365 1363 1371 1381 1384 1388 1400 1406 1413 1416 1414 1425 1433 1441 1436 1439 1440 1444 1449 1454 1463 1471 1482 1480 1478 1479 1476 1477 1475 1478 1492 1490 1494 1470 1480 1481 1484 1486 1489 1491 1494 1494
1350 1344 1352 1344 1360 1366 1372 1377 1382 1391 1396 1403 1409 1412 1422 1428 1429 1430 1438 1442 1444 1447 1449 1454 1463 1460 1457 1456 1461 1471 1471 1470 1475 1485 1474 1473 1463 1480 1481 1478 1481 1484 1488 1490 1490
1335 1338 1335 1340 1345 1358 1367 1369 1374 1388 1389 1396 1406 1407 1411 1427 1430 1429 1434 1443 1445 1447 1451 1453 1456 1461 1462 1464 1466 1464 1458 1466 1469 1458 1471 1454 1467 1470 1470 1473 1474 1478 1482 1484 1484
1326 1330 1328 1335 1343 1351 1360 1365 1362 1378 1382 1388 1392 1399 1406 1411 1411 1426 1431 1434 1436 1448 1451 1453 1458 1466 1464 1466 1464 1466 1462 1462 1458 1457 1461 1462 1459 1460 1463 1471 1473 1472 1475 1477 1477
1320 1323 1325 1326 1336 1342 1349 1363 1368 1371 1380 1382 1390 1400 1406 1405 1414 1421 1425 1426 1431 1439 1446 1450 1462 1469 1458 1469 1471 1469 1446 1453 1452 1453 1449 1456 1440 1454 1461 1464 1463 1466 1469 1470 1472